Hourly Data Report for October 03, 2017

All times are specified in Local Standard Time (LST). Add 1 hour to adjust for Daylight Saving Time where and when it is observed.

SAULT STE MARIE A
ONTARIO

46°29'06.000" N
84°30'35.000" W
192.00 m
6057591
71260
YAM

Download Data

Hourly Data (October 2017)
Hourly Data Report for October 3, 2017
Temp Definition
°C
Dew Point Temp Definition
°C
Rel Hum Definition
%
Wind Dir Definition
10's deg

Wind Spd Definition
km/h
Visibility Definition
km
Stn Press Definition
kPa
Hmdx Definition


Wind Chill Definition


Weather Definition


TIME
00:00 Legend Double Dagger 17.9 12.8 72 11 8 24.1 100.08     LegendNANA
01:00 Legend Double Dagger 17.9 12.8 72 9 12 24.1 100.07     Cloudy
02:00 Legend Double Dagger 17.4 12.8 74 10 14 24.1 100.08     LegendNANA
03:00 Legend Double Dagger 16.7 12.7 77 10 10 24.1 100.03     LegendNANA
04:00 Legend Double Dagger 16.7 12.6 76 9 13 24.1 100.03     Cloudy
05:00 Legend Double Dagger 16.4 12.4 77 10 8 24.1 100.05     LegendNANA
06:00 Legend Double Dagger 16.2 12.1 76 9 11 24.1 100.05     LegendNANA
07:00 Legend Double Dagger 15.7 11.8 77 9 15 24.1 100.01     Mostly Cloudy
08:00 Legend Double Dagger 16.1 12.1 76 8 10 24.1 100.04     LegendNANA
09:00 Legend Double Dagger 18.2 11.7 65 12 9 24.1 99.99     LegendNANA
10:00 Legend Double Dagger 19.2 12.0 63 12 8 24.1 99.97     Mostly Cloudy
11:00 Legend Double Dagger 21.7 13.2 58 12 10 24.1 99.92 25   LegendNANA
12:00 Legend Double Dagger 23.6 15.3 59 17 17 24.1 99.86 28   LegendNANA
13:00 Legend Double Dagger 23.1 15.9 64 18 21 24.1 99.80 28   Mostly Cloudy
14:00 Legend Double Dagger 22.8 16.3 67 19 13 24.1 99.77 28   LegendNANA
15:00 Legend Double Dagger 23.2 16.6 66 16 13 24.1 99.74 28   LegendNANA
16:00 Legend Double Dagger 22.7 16.8 69 19 11 24.1 99.71 28   Cloudy
17:00 Legend Double Dagger 22.5 17.1 71 17 10 24.1 99.73 28   LegendNANA
18:00 Legend Double Dagger 22.0 17.2 74 19 15 24.1 99.73 27   LegendNANA
19:00 Legend Double Dagger 21.5 17.4 77 20 14 24.1 99.71 27   Cloudy
20:00 Legend Double Dagger 21.2 17.6 80 19 11 24.1 99.70 27   LegendNANA
21:00 Legend Double Dagger 21.3 17.7 80 22 11 24.1 99.68 27   LegendNANA
22:00 Legend Double Dagger 21.0 17.7 81 21 12 24.1 99.65 27   Cloudy
23:00 Legend Double Dagger 21.1 17.8 82 22 14 24.1 99.59 27   LegendNANA

Notes on Data Quality.

Legend

  • E = Estimated
  • M = Missing
  • NA = Not Available
  • ‡ = Partner data that is not subject to review by the National Climate Archives
Date modified: